格洛纳斯M-745 COSMOS 2477 [GLONASS-M]

导读 | 星芒AI

COSMOS 2477 是一颗俄罗斯 GLONASS-M 系统的导航卫星,于 2013 年 12 月 24 日由质子-M 运载火箭发射。该卫星属于 GLONASS 卫星导航系统的现代化升级版本,提供更精确的定位和时间同步服务。它运行在中地球轨道,设计寿命为 7 年,是俄罗斯全球卫星导航系统的重要组成部分。COSMOS 2477 的部署增强了 GLONASS 的覆盖范围和系统稳定性,支持民用与军用导航需求。

基本信息
目录编号:
37868
目录名称:
COSMOS 2477 (GLONASS)
国际标识:
2011-064B
轨道中心:
EARTH
卫星名称:
格洛纳斯M-745
卫星全名:
格洛纳斯M-745 COSMOS 2477 [GLONASS-M]
卫星状态:
在轨 (已飞行5111 天)
发射日期:
2011-11-04 UTC
国别 :
俄罗斯(独联体) (CIS)
星等 :
--
轨道信息
数据来源 国际轨道数据 AOE轨道数据
星历时间 2025-10-30T15:02:16+0800
2天前
查看轨道信息
2025-10-30T05:00:00+0800
2天前
查看轨道信息
半长轴 25507.961km 25507.961km
偏心率 0.0020046 0.0020143
轨道倾角 65.146° 65.146°
近地点辐角 231.234° 231.223°
升交点赤经 80.718° 80.732°
平近点角 146.733° 185.889°
近地点 19078.692km 19078.445km
远地点 19180.96km 19181.207km
周期 675.730分钟 675.730分钟
每日圈数 2.131028 2.131028
详细信息
平衡模式:
三轴稳定
覆盖范围:
全球
运营商:
列舍特涅夫卫星信息系统
运营商所在国:
俄罗斯
制造商(研发单位):
列舍特涅夫卫星信息系统
制造商所在国:
俄罗斯
使用方式:
暂无
卫星简介
格洛纳斯(GLONASS )是苏联/俄罗斯研制卫星导航系统。标准配置为24颗卫星,其中18颗卫星就能保证该系统为俄罗斯境内用户提供全部服务。该卫星仍在工作。
2D轨道图
3D轨道图
轨道高度分析图
轨道倾角分析图
轨道综合分析图
查看轨道综合分析图